Zurück zum Katalog

THORAD AGENA D DEB

AktivPO
NORAD 4868·DEBRIS·🇺🇸 United States

Gestartet Apr 8, 1970 von Vandenberg Space Force Base

Loading…

Nächste Überflüge (nächste 24 Stunden)

TLE

AktuellSource: Space-Track

Epoche: Sep 13, 2026, 17:06 UTC

1 04868U 70025EY  26256.71313780  .00001041  00000-0  70995-3 0  9990
2 04868  99.7161 334.5653 0056101 179.9977 180.1195 14.01631422847617

Verfolge THORAD AGENA D DEB in Echtzeit mit AllMySat

Download on the App Store